Theta_e
309 307 308 308 307 308 309 309 309 309 309 311 309 310 310 311 312 312 314 315 315 316 317 317 317 323 324 326 325 325 326 328 330 340 341 341 341 341 339 337 336 330 330 330
307 308 308 309 309 309 309 309 309 309 310 309 310 310 309 309 311 313 314 314 315 316 316 317 316 321 323 323 326 326 325 326 326 338 341 343 343 343 343 335 330 333 332 328
308 309 310 310 311 311 310 310 311 311 312 310 311 310 311 311 311 313 314 315 315 315 315 316 316 317 320 324 324 326 325 325 325 335 342 343 339 340 331 329 329 329 333 332
308 308 310 309 311 310 310 310 311 311 311 310 310 311 310 310 310 310 313 314 314 314 315 315 315 315 316 317 320 324 324 327 326 338 339 338 335 333 328 329 331 332 333 332
310 310 310 311 310 310 310 310 310 311 309 309 310 307 308 309 310 309 308 312 314 314 315 314 317 317 317 316 316 321 324 324 326 330 333 332 330 333 331 331 333 334 334 334
309 310 310 309 311 310 311 311 307 305 305 308 308 308 309 309 310 309 310 312 313 314 315 316 316 317 317 317 317 317 323 324 326 328 329 326 327 328 328 326 326 326 328 328
311 310 309 311 311 310 310 308 309 310 309 313 309 308 310 309 309 309 309 312 314 315 316 316 316 316 317 317 317 317 322 325 325 322 320 319 317 315 315 315 316 318 320 321
310 312 311 311 310 311 308 307 310 314 312 313 312 309 309 308 311 313 313 314 314 314 315 316 317 318 318 317 317 316 320 326 325 320 317 315 314 314 314 314 313 313 312 313
310 311 312 312 311 310 311 309 308 310 313 314 312 312 313 313 312 312 314 313 314 315 316 318 319 319 319 317 315 317 323 324 319 316 316 317 316 316 315 316 315 315 315 314
312 313 313 313 313 313 313 313 315 313 318 316 314 315 314 314 313 313 313 313 314 314 315 315 317 318 319 319 319 321 322 319 317 317 317 316 315 315 315 316 315 314 315 316
312 311 313 313 313 314 313 314 315 315 317 321 321 315 310 311 312 313 312 313 315 315 315 315 315 317 318 318 319 321 318 318 317 317 316 315 315 315 315 316 316 315 316 317
312 313 315 315 311 313 314 315 317 318 319 317 313 316 312 310 312 313 312 313 314 315 315 315 314 316 317 317 316 319 319 318 318 317 317 317 316 316 316 317 316 316 316 316
312 313 317 316 313 313 316 316 315 314 312 314 316 315 311 311 311 312 312 314 314 315 315 315 315 314 315 315 316 316 316 316 317 318 318 318 318 318 317 318 318 316 316 316
312 312 314 317 315 313 315 315 315 315 315 312 313 314 312 312 312 311 311 313 314 314 314 314 313 314 315 314 314 315 316 316 315 315 316 316 316 316 316 316 318 318 316 316
311 313 313 314 314 312 312 314 314 315 314 315 312 312 311 310 311 311 312 313 314 312 311 311 311 311 312 312 312 312 314 315 315 316 316 316 316 316 316 316 316 318 318 317
308 309 311 312 311 311 314 312 311 312 312 312 312 313 308 308 311 312 311 312 311 310 309 309 310 309 309 310 311 311 311 312 312 314 315 315 315 315 315 316 316 317 317 318
307 308 310 309 309 310 310 309 309 310 311 312 313 311 308 310 311 311 310 310 310 309 308 307 308 308 308 308 308 308 309 310 311 311 312 313 314 314 315 315 315 316 316 316
304 305 306 307 307 311 308 312 312 312 313 312 312 312 311 311 309 308 308 308 310 307 306 305 304 305 306 307 307 307 308 308 308 310 310 310 311 312 312 313 314 315 315 315
305 306 306 309 307 308 310 313 313 312 313 312 313 311 310 308 307 307 309 309 307 305 304 304 303 304 305 305 306 306 306 306 307 307 307 308 308 309 310 311 312 313 314 315
306 309 309 307 308 311 306 312 311 311 312 309 308 308 306 306 308 307 307 306 305 304 303 302 303 304 303 303 304 304 304 304 304 304 304 304 305 306 306 307 309 310 312 313
310 310 307 311 312 311 311 310 310 311 307 305 305 304 304 305 305 305 305 305 304 303 302 303 303 304 303 303 303 303 302 302 301 301 301 302 302 302 303 304 304 305 307 308
309 311 304 309 310 308 305 307 308 305 304 304 304 304 304 304 304 305 304 303 302 301 303 302 301 301 300 300 301 302 301 300 300 300 300 300 301 301 302 302 303 303 304 304
310 309 307 307 304 305 305 305 305 305 304 304 304 305 305 305 304 302 302 302 302 303 302 300 300 299 299 299 298 298 299 300 300 299 299 299 300 301 302 302 303 303 304 304
307 306 308 307 305 305 305 305 305 304 305 304 304 304 303 302 302 302 302 302 302 301 298 299 299 299 298 297 298 299 299 298 298 298 298 300 300 301 300 300 300 301 302 303
305 305 304 304 303 304 304 305 305 304 303 303 303 302 302 302 302 300 298 298 298 298 297 297 297 296 296 296 296 297 297 297 298 298 299 300 300 301 302 303 303 303 303 302
304 303 301 303 304 304 304 304 303 303 302 303 303 302 302 302 301 299 297 297 298 298 297 294 296 294 295 295 296 296 297 297 298 298 299 300 301 301 302 302 303 304 305 306
Wind_Speed
2 4 5 9 7 5 2 4 5 6 10 3 8 6 9 14 16 18 17 17 18 19 19 19 28 39 39 36 34 32 31 31 31 36 34 32 32 34 34 35 34 30 38 46
5 5 9 5 4 5 5 4 7 9 13 7 8 8 8 6 7 10 15 20 16 12 14 15 19 23 40 40 40 37 35 33 34 36 37 37 34 33 32 28 22 29 42 42
6 7 5 6 3 4 4 5 5 8 4 3 2 4 6 5 6 15 15 13 15 19 23 20 19 17 26 36 43 44 40 39 38 40 40 37 33 32 29 30 27 25 29 36
5 6 6 4 5 6 4 8 7 5 1 5 4 10 4 5 6 6 15 19 26 25 22 18 22 24 24 23 33 45 46 46 43 42 41 40 39 37 33 31 30 29 30 29
8 3 3 4 9 6 9 5 6 5 4 2 3 1 7 3 5 10 8 17 18 23 24 27 22 21 23 26 28 32 45 44 45 44 44 40 35 35 32 29 26 26 28 27
9 2 6 7 2 7 3 1 5 4 3 3 7 6 5 5 8 6 5 19 28 25 21 24 27 29 30 28 28 33 36 42 42 40 37 34 32 32 30 30 29 27 25 26
3 10 5 4 5 5 4 5 4 4 3 10 8 6 11 6 9 8 10 24 29 29 27 29 28 32 32 33 35 35 37 42 40 37 35 31 28 25 23 23 22 23 25 24
5 10 6 4 9 12 7 8 5 6 4 8 3 6 6 7 8 12 13 18 20 23 21 24 28 26 31 37 36 42 43 44 40 36 30 23 19 19 18 18 20 22 23 23
3 6 4 5 6 10 3 4 4 2 2 2 5 6 6 5 4 6 10 14 8 11 14 14 15 19 24 24 26 37 44 41 34 28 23 20 17 17 14 11 12 15 19 20
3 4 5 6 2 0 3 5 1 1 4 6 4 3 5 6 4 5 8 13 15 14 13 14 11 11 14 15 19 26 31 28 24 21 19 16 15 14 10 12 10 11 14 16
1 2 6 1 4 5 1 2 4 3 2 4 8 5 5 3 3 6 8 14 14 16 16 15 10 8 7 9 12 24 28 28 26 25 25 20 19 14 15 18 16 13 12 13
5 4 5 11 4 3 1 3 4 4 4 4 2 10 3 4 4 7 14 19 19 17 21 19 17 14 6 7 15 16 21 24 29 29 32 30 26 22 23 23 22 19 16 16
4 1 2 6 1 1 3 2 3 4 3 6 5 7 2 7 7 18 17 21 17 18 21 20 20 20 13 7 21 20 13 15 24 27 32 34 32 31 30 31 29 26 24 21
4 2 4 6 3 2 6 5 7 6 3 4 7 16 13 14 12 15 22 15 14 11 13 12 13 11 5 6 8 11 21 23 15 16 17 20 29 35 36 34 35 36 31 28
6 6 8 13 16 13 13 13 10 8 9 8 13 9 14 6 9 9 10 12 12 13 14 14 15 17 13 9 7 3 2 5 11 13 14 14 14 23 30 34 36 39 40 37
3 4 3 7 11 10 13 10 9 13 13 10 11 14 2 8 12 17 17 16 7 14 19 21 17 21 18 17 16 15 12 10 11 11 13 15 16 18 19 23 31 37 41 42
4 4 2 4 1 4 5 6 6 4 3 3 4 5 3 5 6 13 19 17 9 16 21 25 23 25 27 26 24 24 24 22 20 19 20 20 21 23 23 23 25 27 33 39
6 5 3 3 3 2 2 2 4 2 2 5 6 6 4 7 17 26 24 21 11 23 32 35 35 34 35 35 34 34 33 33 33 32 31 28 27 29 27 28 28 31 31 32
5 4 2 1 2 5 1 0 2 2 4 0 3 7 12 16 22 19 9 8 20 33 35 39 39 37 38 40 41 42 43 42 43 43 42 40 37 36 35 34 32 34 34 37
4 2 4 2 2 3 4 1 2 3 5 9 9 9 10 15 9 13 12 23 38 37 37 42 40 39 45 44 43 43 45 45 46 47 47 47 47 45 43 41 39 35 33 39
2 1 4 3 3 4 1 5 7 1 4 9 9 14 16 11 16 31 38 40 33 37 42 37 35 37 41 42 42 46 47 49 51 51 52 50 48 49 48 47 47 45 42 39
3 3 2 2 1 6 5 5 2 3 7 15 22 22 26 28 30 31 33 37 43 46 36 37 43 46 47 41 39 42 44 48 44 41 42 44 41 42 44 44 44 44 46 47
2 3 3 6 4 2 2 10 15 10 19 22 20 26 27 25 28 33 37 39 38 38 39 39 43 48 38 40 49 51 43 35 38 41 41 36 37 36 33 34 36 37 38 40
2 1 2 2 0 3 14 2 7 14 17 24 24 23 27 29 33 38 41 36 35 36 45 39 40 43 50 48 35 36 37 41 39 39 42 38 37 37 38 40 41 41 42 41
4 2 1 4 4 12 1 10 20 25 27 29 26 26 30 32 28 37 46 44 39 36 42 39 40 44 41 38 39 36 38 38 38 39 40 40 41 40 40 39 41 44 45 45
3 4 3 4 6 5 16 22 23 25 29 29 27 29 28 30 36 41 48 44 41 45 41 42 42 39 40 40 38 39 37 35 36 38 39 40 39 39 39 40 43 43 43 42
Wind_Direction
44 86 207 218 198 178 191 207 242 255 260 229 253 253 264 285 306 305 305 310 311 311 306 284 253 240 226 222 221 228 227 220 224 216 214 213 215 213 216 226 241 241 224 244
28 236 230 195 185 207 215 247 261 276 261 168 260 258 253 244 248 253 293 304 313 321 331 327 288 261 234 229 225 225 228 227 222 219 220 218 219 220 229 244 235 238 240 242
170 235 116 176 233 201 209 189 237 226 307 264 326 293 250 255 259 282 284 277 288 301 306 305 305 299 256 247 236 227 231 228 225 219 216 220 222 226 231 228 236 241 232 231
226 258 204 185 225 166 251 220 242 253 168 242 125 282 238 240 255 269 273 288 296 299 293 288 295 295 295 290 252 239 230 225 223 219 219 222 225 228 234 238 238 233 241 243
240 199 162 188 223 144 244 219 232 253 232 57 282 291 277 229 273 269 254 272 292 299 292 292 289 286 288 284 281 255 236 227 223 222 223 221 226 230 235 237 234 234 231 233
241 245 183 213 257 172 225 185 45 52 89 238 231 209 191 223 240 275 268 277 290 298 291 283 288 284 277 274 268 266 240 226 222 220 221 224 228 230 234 239 240 238 236 232
299 251 244 178 291 283 127 81 311 312 300 264 222 238 252 234 247 227 269 300 303 299 286 286 284 286 280 273 263 256 243 227 222 220 219 222 225 232 236 242 244 243 244 243
199 278 178 188 194 228 185 160 181 245 242 273 29 242 247 217 250 308 321 316 311 297 281 280 283 280 282 278 264 245 236 225 218 217 217 217 223 231 239 245 252 256 260 258
196 265 257 224 195 150 193 177 199 175 44 340 225 295 305 279 12 354 345 8 328 334 317 304 312 310 294 282 264 247 230 214 209 210 209 215 214 228 224 242 267 263 259 259
252 279 253 280 151 12 171 149 121 17 294 264 239 264 242 267 255 315 342 343 352 341 322 330 343 337 330 302 266 243 214 207 202 210 213 218 233 218 227 241 252 272 264 256
200 63 290 225 223 220 166 178 67 96 167 261 289 253 219 249 234 285 301 319 315 320 324 301 336 16 23 326 279 209 198 202 207 200 216 212 213 220 227 235 241 247 247 248
347 159 226 258 323 304 87 131 150 164 213 231 240 264 309 282 251 270 303 314 317 313 320 311 306 287 283 302 343 255 246 226 223 218 227 227 230 231 233 235 240 241 241 235
59 214 284 306 202 66 83 110 110 96 123 216 235 274 322 303 303 303 303 303 322 321 307 311 299 295 330 350 267 307 321 275 259 256 255 253 248 243 244 245 243 242 242 241
117 290 216 242 265 223 272 225 206 173 206 249 233 281 293 291 304 295 287 293 320 341 6 13 16 13 5 282 242 227 244 260 270 264 271 274 258 252 249 247 245 247 245 243
140 230 225 237 248 263 257 254 246 208 231 234 276 266 280 323 314 320 333 329 333 355 359 5 3 345 354 351 9 1 297 264 261 258 264 273 273 254 249 248 247 246 249 248
172 239 220 264 256 258 256 253 255 255 255 248 263 274 99 305 351 340 322 336 339 348 346 349 349 336 333 332 323 319 307 290 284 270 255 255 260 260 252 252 249 247 249 251
177 167 148 257 337 320 273 239 223 232 209 180 225 238 290 306 311 295 308 318 302 329 334 331 322 307 309 312 311 308 305 298 293 289 283 273 258 262 259 253 251 250 250 251
164 154 167 251 20 236 255 44 85 50 239 238 250 269 278 294 302 304 308 301 292 321 318 315 313 306 306 306 303 302 300 297 294 288 284 280 278 276 273 265 257 251 250 254
156 139 104 209 213 290 100 97 64 355 279 237 341 338 327 322 319 297 275 268 305 308 307 310 311 304 301 299 299 298 296 294 291 288 287 283 280 276 274 272 269 261 257 253
109 68 166 152 192 248 218 158 18 281 267 31 355 323 305 316 293 288 289 296 303 306 307 309 308 300 302 303 299 296 293 290 287 287 286 284 282 279 275 272 269 267 263 257
86 105 182 191 227 284 11 331 332 316 266 329 309 300 302 291 286 294 301 304 303 305 306 305 300 292 297 299 296 292 291 289 292 290 288 284 279 276 275 274 272 270 264 260
176 176 207 153 242 282 10 349 301 241 317 319 313 307 296 293 291 293 298 294 297 302 297 299 298 296 297 289 284 282 279 287 287 285 284 285 281 276 274 273 270 268 267 264
208 194 189 181 222 238 192 288 298 270 315 313 300 300 297 298 297 295 298 296 295 289 293 302 297 294 287 284 291 287 286 278 278 282 279 274 272 269 268 266 266 265 261 255
312 30 218 355 226 236 306 287 344 310 305 306 302 301 304 300 304 300 304 296 305 296 304 296 293 283 290 294 282 282 279 281 280 276 280 282 280 277 274 268 262 256 251 248
223 26 179 273 292 314 317 299 318 316 315 317 308 301 302 301 297 315 312 300 299 297 299 298 288 293 286 288 287 282 283 281 279 277 276 276 276 276 275 270 265 260 258 252
196 186 145 240 271 258 291 316 319 315 311 303 301 305 306 300 294 309 314 306 299 300 292 306 290 296 287 291 287 286 287 285 281 278 277 275 273 271 269 266 266 267 264 261